Regional Weather Roundup
Issued by NWS

Home | Current Version | Previous Version | Graphics & Text | Print | Product List | Glossary On
Versions: 1 2 3 4 5 6 7 8 9 10 11 12 13 14 15 16 17 18 19 20 21 22 23 24 25 26 27 28 29 30 31 32 33 34 35 36 37 38 39 40 41 42 43 44 45 46 47 48 49 50
000
ASUS43 KMKX 022300
RWRWI

WISCONSIN REGIONAL WEATHER ROUNDUP
NATIONAL WEATHER SERVICE MILWAUKEE/SULLIVAN WI
600 PM CDT MON MAY 02 2016

NOTE: "FAIR" INDICATES FEW OR NO CLOUDS BELOW 12,000 FEET WITH NO
SIGNIFICANT WEATHER AND/OR OBSTRUCTIONS TO VISIBILITY.

WIZ001-002-006>008-014>016-023>028-030000-
NORTHWEST WISCONSIN

CITY           SKY/WX    TMP DP  RH WIND       PRES   REMARKS
SUPERIOR ARPT  SUNNY     57  38  48 NE6       29.99F
ASHLAND        SUNNY     64  37  36 N8        30.01F
HAYWARD        PTSUNNY   64  27  24 NW3       29.99S
SIREN          MOSUNNY   66  27  23 S6        29.99F
CUMBERLAND     MOSUNNY   63  32  31 SW7       30.00S
RICE LAKE      SUNNY     64  29  26 N5        30.01F
CHETEK         MOSUNNY   62  35  36 N6        30.00F
LADYSMITH      MOSUNNY   62  33  34 S8        30.01F
EAU CLAIRE     NOT AVBL
MENOMONIE      SUNNY     67  34  28 W7        30.00F
NEW RICHMOND   SUNNY     64  29  26 CALM      30.01S
OSCEOLA        SUNNY     66  29  24 W8        30.03S
$$

WIZ003>005-009-010-017-018-030000-
NORTH CENTRAL WISCONSIN

CITY           SKY/WX    TMP DP  RH WIND       PRES   REMARKS
MANITOWISH WTR PTSUNNY   61  32  32 N8        29.99F
ARBOR VITAE    PTSUNNY   62  31  31 W3        30.00S
WOODRUFF       PTSUNNY   62  31  31 W3        30.00S
RHINELANDER    MOSUNNY   62  29  28 VRB6      30.00F
EAGLE RIVER    MOSUNNY   62  25  24 N3        29.99F
LAND O LAKES   MOSUNNY   60  27  28 NW3       30.00F
PHILLIPS       CLOUDY    62  32  31 SW8       29.99S
TOMAHAWK       CLOUDY    61  30  31 CALM      30.01S
MEDFORD        MOSUNNY   60  34  37 W5        30.01S
MERRILL        PTSUNNY   62  33  33 CALM      30.01S
$$

WIZ029-030-035-036-043>047-030000-
CENTRAL WISCONSIN

CITY           SKY/WX    TMP DP  RH WIND       PRES   REMARKS
WAUSAU         CLOUDY    63  33  32 SW3       29.98F
MOSINEE        MOSUNNY   59  36  41 SW5       30.01F
MARSHFIELD     MOSUNNY   63  32  31 NW5       30.00F
STEVENS POINT  CLOUDY    60  32  34 CALM      30.01S
WAUPACA        PTSUNNY   64  29  26 CALM      30.00S
WAUTOMA        CLOUDY    63  29  27 E3        30.00S
WISC RAPIDS    MOSUNNY   63  28  26 N8        30.02S
CAMP DOUGLAS   NOT AVBL
$$

WIZ011>013-019>022-031-037>040-048>050-030000-
NORTHEAST WISCONSIN

CITY           SKY/WX    TMP DP  RH WIND       PRES   REMARKS
ANTIGO         MOSUNNY   59  32  36 CALM      30.00F
SHAWANO        PTSUNNY   64  32  29 CALM      29.99S
OCONTO         SUNNY     61  34  35 SE8       30.01S
STURGEON BAY   SUNNY     57  32  38 SE8       30.04S
GREEN BAY      SUNNY     63  32  31 SE7       30.01S
MANITOWOC      NOT AVBL
APPLETON       PTSUNNY   63  28  27 SE7       29.99F
CLINTONVILLE   CLOUDY    63  28  27 CALM      29.99S
OSHKOSH        SUNNY     62  30  29 E5        30.01S
$$

WIZ032>034-041-042-053>061-030000-
SOUTHWEST WISCONSIN

CITY           SKY/WX    TMP DP  RH WIND       PRES   REMARKS
LA CROSSE      CLOUDY    64  33  31 CALM      30.01S
SPARTA         CLOUDY    62  34  34 CALM      30.02S
VIROQUA        CLOUDY    60  33  36 CALM      30.02F
BOSCOBEL       PTSUNNY   64  33  31 CALM      30.02S
PRAIRIE DU CHI MOSUNNY   62  35  36 CALM      30.02S
PLATTEVILLE    MOSUNNY   60  35  40 N3        30.02S
$$

WIZ056-057-062-063-064-067-068-030000-
SOUTH CENTRAL WISCONSIN

CITY           SKY/WX    TMP DP  RH WIND       PRES   REMARKS
REEDSBURG      CLOUDY    61  35  36 CALM      30.00S
BARABOO/DELLS  CLOUDY    63  27  26 NW3       30.00S
LONE ROCK      NOT AVBL
MINERAL POINT  PTSUNNY   61  30  31 CALM      30.02S
MADISON        MOSUNNY   62  33  33 E7        30.00F
MIDDLETON      MOSUNNY   64  31  28 NE7       30.01F
WATERTOWN      PTSUNNY   59  38  46 NE6       30.01S
MONROE         PTSUNNY   59  36  41 NE8       30.01S
JANESVILLE     PTSUNNY   61  36  39 E5        30.01S
$$

WIZ051-052-058>065-066-070>072-030000-
SOUTHEAST WISCONSIN

CITY           SKY/WX    TMP DP  RH WIND       PRES   REMARKS
MILWAUKEE      MOSUNNY   54  34  46 NE14      30.03S
WAUKESHA       MOSUNNY   57  28  33 NE14      30.02F
MILWAUKEE/TIMM NOT AVBL
RACINE         SUNNY     53  34  48 NE10      30.04S
BURLINGTON     SUNNY     59  29  32 E12       30.01S
KENOSHA        SUNNY     56  35  45 E13       30.02S
FOND DU LAC    SUNNY     62  32  32 N3        30.01F
SHEBOYGAN      SUNNY     58  34  40 NE9       30.02F
WEST BEND      SUNNY     59  32  36 NE7       30.02S
JUNEAU         PTSUNNY   61  35  37 NE7       30.02F
$$

LSZ147-162-030000-
LAKE SUPERIOR

STATION/POSITION TIME  TEMP    WIND        PRES    WAVE
                       AIR SEA DIR/SP/G            HT/PER
                 (UTC) (F)     (DEG/KT/KT) (MB)    (FT/S)
W MID LAKE BUOY  2150   39 37   20/  2/  2 1018.0F   0
DEVILS ISLAND    2200   47      CALM  /  1 1017.1F
SAXON HARBOR     2240   49     330/  2/  2 1016.3F
$$

LMZ867-665-643>646-030000-
LAKE MICHIGAN

STATION/POSITION TIME  TEMP    WIND        PRES    WAVE
                       AIR SEA DIR/SP/G            HT/PER
                 (UTC) (F)     (DEG/KT/KT) (MB)    (FT/S)
CHAMBERS ISLAND  2200   59      90/  5/  8 1016.3F
N MID LAKE BUOY  2150   43 39  210/  4/  4 1017.0F   0
NORTHPORT PIER   2200   53     150/  7/ 10 1016.6F
KEWAUNEE LAKESHO 2200   51                 1016.2F
SHEBOYGAN LAKESH 2200   49      10/  8/  9 1017.4F
PORT WASHINGTON  2200   54      30/  8/ 12 1017.3F
S MID LAKE BUOY  2150   42 41  340/  4/  6 1017.0F   1/ 4
KENOSHA   LAKESH 2200   49     100/  1/  3 1016.9F
$$

TC  - TEMPERATURE IN CELSIUS
VSB - VISIBILITY IN STATUTE MILES
WCI - WIND CHILL INDEX
HX  - HEAT INDEX





USA.gov is the U.S. government's official web portal to all federal, state and local government web resources and services.